Regional Weather Roundup
Issued by NWS

Home | Current Version | Previous Version | Text Only | Print | Product List | Glossary On
Versions: 1 2 3 4 5 6 7 8 9 10 11 12 13 14 15 16 17 18 19 20 21 22 23 24 25 26 27 28 29 30 31 32 33 34 35 36 37 38 39 40 41 42 43 44 45 46 47 48 49
000
ASUS45 KREV 250610
RWRNV
NEVADA REGIONAL WEATHER ROUNDUP
NATIONAL WEATHER SERVICE RENO NV
1100 PM PDT THU JUL 24 2014

NOTE: "FAIR" INDICATES FEW OR NO CLOUDS BELOW 12,000 FEET WITH NO
SIGNIFICANT WEATHER AND/OR OBSTRUCTIONS TO VISIBILITY.

NVZ001-003-004-250700-
WESTERN NEVADA

CITY           SKY/WX    TMP DP  RH WIND       PRES   REMARKS
RENO           PTCLDY    76  34  21 W5        30.05R
6HR MIN TEMP:  76; 6HR MAX TEMP:  90;

CARSON CITY    FAIR      75  32  20 NW3       30.07R
SLIDE MTN        N/A     55  34  44 NE6         N/A
PYRAMID LAKE     N/A     79 N/A N/A SW6         N/A
FALLON         CLEAR     72  27  18 N10       29.99R
6HR MIN TEMP:  72; 6HR MAX TEMP:  92;

LOVELOCK       CLEAR     72  19  13 N7        30.01R
6HR MIN TEMP:  71; 6HR MAX TEMP:  91;

HAWTHORNE      CLEAR     79  43  27 NW10      30.01R
$$

NVZ002-CAZ072-073-250700-
NORTHERN AND CENTRAL SIERRA

CITY           SKY/WX    TMP DP  RH WIND       PRES   REMARKS
S. LAKE TAHOE  CLEAR     57  43  59 S3        30.19R
6HR MIN TEMP:  57; 6HR MAX TEMP:  80;

TRUCKEE        CLEAR     55  41  58 CALM      30.17S
SQUAW VLY 8000 NOT AVBL
SUSANVILLE     CLEAR     66  27  22 SW8       30.05
BLUE CANYON    CLEAR     67  40  37 NE3       30.13F
MAMMOTH LAKES  FAIR      63  21  20 NW6       30.22F
BRIDGEPORT     FAIR      59  35  40 NW3       30.19S
$$

NVZ030-031-036-250700-
NORTHERN NEVADA

CITY           SKY/WX    TMP DP  RH WIND       PRES   REMARKS
ELKO           CLEAR     67  28  23 E6        30.07R
6HR MIN TEMP:  66; 6HR MAX TEMP:  88;

WINNEMUCCA     CLEAR     66  28  24 N8        30.07R
6HR MIN TEMP:  66; 6HR MAX TEMP:  86;

WENDOVER       CLEAR     77  37  24 SW5       30.02R
$$

NVZ035-037-250700-
CENTRAL NEVADA

CITY           SKY/WX    TMP DP  RH WIND       PRES   REMARKS
ELY            CLEAR     65  20  17 SW6       30.13R
6HR MIN TEMP:  65; 6HR MAX TEMP:  93;

EUREKA           N/A     61  28  28 SE3       30.12S
6HR MIN TEMP:  61; 6HR MAX TEMP:  91;

$$

NVZ013-014-250700-
SOUTH CENTRAL NEVADA

CITY           SKY/WX    TMP DP  RH WIND       PRES   REMARKS
TONOPAH        CLEAR     76  23  14 NW8       30.07R
6HR MIN TEMP:  76; 6HR MAX TEMP:  96;

$$

NVZ017-020-022-250700-
SOUTHERN NEVADA

CITY           SKY/WX    TMP DP  RH WIND       PRES   REMARKS
LAS VEGAS      PTCLDY    98  47  17 S21G28    29.78R
6HR MIN TEMP:  98; 6HR MAX TEMP: 110;

N. LAS VEGAS   CLEAR     97  31   9 SE6       29.80R
6HR MIN TEMP:  95; 6HR MAX TEMP: 110;

NELLIS AFB     CLEAR     99  53  21 S23       29.77S
6HR MIN TEMP:  99; 6HR MAX TEMP: 110;

HENDERSON      CLEAR     96  54  24 S22G31    29.85R
6HR MIN TEMP:  96; 6HR MAX TEMP: 110;

MERCURY        CLEAR     92  23   8 S10       29.89R
6HR MIN TEMP:  92; 6HR MAX TEMP: 105;

$$


USA.gov is the U.S. government's official web portal to all federal, state and local government web resources and services.